STARLINK-1856 (47143 NORAD) Tracking and Keplerian Element Data

This shows tracking and keplerian element data for the satellite.

Feedback or suggestion? Click here.




ElementValue
Catalog47143
NameSTARLINK-1856
Epoch Orbit177
Epoch Day15.91667824
Epoch Year2021
RAAN98.5776
Inclination53.0551
Eccentricity0.0001506
Argument of Perigee45.7331
Mean Anonmoly346.6311
Mean Motion15.62793464
Decay Rate-0.00045579
L11 47143U 20088X 21015.91667824 -.00045579 00000-0 -49395-3 0 9994
L22 47143 53.0551 98.5776 0001506 45.7331 346.6311 15.62793464 1773

Live tracking and technical data element details for STARLINK-1856 (NORAD 47143). STARLINK-1856 can be tracked NOW for your location showing map with azimuth and elevation plus other details from your city location.

Track the satellite on the map from your city or location and see movement details for azimuth, elevation, latitude, longitude, range, height, and movement on the map or in text.







IsCatalogInMostPopularTable: catalog: 47143, numindb: 16
Update: records affected: 1



GetName: 47143 STARLINK-1856

Hit Count: updated at: Sun, 17 Jan 2021 10:25:52 GMT